| time (UTC) | temp C | wind direction | speed KPH | gust KPH | rain 1hr cm | rain 24hr cm | rain mn cm | humidity % | barometer mb |
| 20260507084528 | 20 | 360 | 0.0 | 0.0 | 0.00 | 0.00 | 0.00 | 34 | 1012.0 |
| 20260507083027 | 19 | 360 | 0.0 | 0.0 | 0.00 | 0.00 | 0.00 | 33 | 1012.0 |
| 20260507081533 | 18 | 360 | 0.0 | 1.6 | 0.00 | 0.00 | 0.00 | 35 | 1012.1 |
| 20260507080026 | 18 | 360 | 0.0 | 0.0 | 0.00 | 0.00 | 0.00 | 34 | 1012.2 |
| 20260507074531 | 20 | 360 | 0.0 | 0.0 | 0.00 | 0.00 | 0.00 | 34 | 1011.8 |
| 20260507073026 | 20 | 360 | 0.0 | 0.0 | 0.00 | 0.00 | 0.00 | 33 | 1011.8 |
| 20260507071532 | 20 | 360 | 0.0 | 0.0 | 0.00 | 0.00 | 0.00 | 32 | 1011.8 |
| 20260507070028 | 20 | 360 | 0.0 | 0.0 | 0.00 | 0.00 | 0.00 | 32 | 1011.8 |
| 20260507064534 | 21 | 360 | 0.0 | 0.0 | 0.00 | 0.00 | 0.00 | 31 | 1011.8 |
| 20260507063026 | 21 | 360 | 0.0 | 0.0 | 0.00 | 0.00 | 0.00 | 30 | 1011.7 |
| 20260507061531 | 21 | 360 | 0.0 | 0.0 | 0.00 | 0.00 | 0.00 | 30 | 1011.7 |
| 20260507060024 | 21 | 360 | 0.0 | 0.0 | 0.00 | 0.00 | 0.00 | 29 | 1011.6 |
| 20260507054523 | 22 | 360 | 0.0 | 0.0 | 0.00 | 0.00 | 0.00 | 29 | 1011.8 |
| 20260507053029 | 22 | 360 | 0.0 | 0.0 | 0.00 | 0.00 | 0.00 | 29 | 1011.7 |
| 20260507051524 | 22 | 360 | 0.0 | 0.0 | 0.00 | 0.00 | 0.00 | 29 | 1011.8 |
| 20260507050023 | 22 | 360 | 0.0 | 0.0 | 0.00 | 0.00 | 0.00 | 28 | 1011.7 |
| 20260507044523 | 22 | 360 | 0.0 | 0.0 | 0.00 | 0.00 | 0.00 | 26 | 1011.7 |
| 20260507043023 | 23 | 360 | 0.0 | 0.0 | 0.00 | 0.00 | 0.00 | 25 | 1011.7 |
| 20260507041523 | 23 | 360 | 0.0 | 0.0 | 0.00 | 0.00 | 0.00 | 24 | 1011.6 |
| 20260507040023 | 23 | 360 | 0.0 | 0.0 | 0.00 | 0.00 | 0.00 | 24 | 1011.4 |
| 20260507034532 | 24 | 360 | 0.0 | 0.0 | 0.00 | 0.00 | 0.00 | 23 | 1011.2 |
| 20260507033023 | 25 | 360 | 0.0 | 0.0 | 0.00 | 0.00 | 0.00 | 22 | 1010.9 |
| 20260507031522 | 26 | 360 | 0.0 | 0.0 | 0.00 | 0.00 | 0.00 | 22 | 1010.9 |
| 20260507030023 | 26 | 360 | 0.0 | 0.0 | 0.00 | 0.00 | 0.00 | 21 | 1010.7 |
| 20260507024521 | 26 | 360 | 0.0 | 0.0 | 0.00 | 0.00 | 0.00 | 20 | 1010.6 |
| 20260507023020 | 27 | 360 | 0.0 | 0.0 | 0.00 | 0.00 | 0.00 | 20 | 1010.5 |
| 20260507021520 | 27 | 360 | 0.0 | 0.0 | 0.00 | 0.00 | 0.00 | 20 | 1010.4 |
| 20260507020020 | 27 | 360 | 0.0 | 0.0 | 0.00 | 0.00 | 0.00 | 19 | 1010.3 |
| 20260507014523 | 28 | 360 | 0.0 | 0.0 | 0.00 | 0.00 | 0.00 | 19 | 1010.3 |
| 20260507013019 | 28 | 360 | 0.0 | 0.0 | 0.00 | 0.00 | 0.00 | 19 | 1010.3 |
| 20260507011518 | 28 | 360 | 0.0 | 3.2 | 0.00 | 0.00 | 0.00 | 19 | 1010.3 |
| 20260507010029 | 28 | 360 | 0.0 | 0.0 | 0.00 | 0.00 | 0.00 | 19 | 1010.3 |
| 20260507004518 | 28 | 360 | 0.0 | 6.4 | 0.00 | 0.00 | 0.00 | 18 | 1010.2 |
| 20260507003017 | 28 | 79 | 0.0 | 4.8 | 0.00 | 0.00 | 0.00 | 19 | 1010.2 |
| 20260507001517 | 28 | 360 | 0.0 | 0.0 | 0.00 | 0.00 | 0.00 | 19 | 1010.3 |
| 20260507000016 | 28 | 360 | 0.0 | 16.1 | 0.00 | 0.00 | 0.00 | 19 | 1010.2 |
| 20260506234532 | 28 | 360 | 0.0 | 0.0 | 0.00 | 0.00 | 0.00 | 19 | 1010.2 |
| 20260506233013 | 29 | 360 | 0.0 | 0.0 | 0.00 | 0.00 | 0.00 | 19 | 1010.5 |
| 20260506231514 | 28 | 360 | 0.0 | 6.4 | 0.00 | 0.00 | 0.00 | 20 | 1010.6 |
| 20260506230015 | 28 | 360 | 0.0 | 0.0 | 0.00 | 0.00 | 0.00 | 20 | 1010.7 |
| 20260506224523 | 28 | 360 | 0.0 | 0.0 | 0.00 | 0.00 | 0.00 | 20 | 1010.9 |
| 20260506223010 | 28 | 360 | 0.0 | 0.0 | 0.00 | 0.00 | 0.00 | 21 | 1011.2 |
| 20260506221505 | 28 | 52 | 0.0 | 0.0 | 0.00 | 0.00 | 0.00 | 20 | 1011.4 |
| 20260506220003 | 27 | 360 | 0.0 | 4.8 | 0.00 | 0.00 | 0.00 | 21 | 1011.6 |
| 20260506214559 | 27 | 360 | 0.0 | 0.0 | 0.00 | 0.00 | 0.00 | 21 | 1011.8 |
| 20260506213056 | 27 | 360 | 0.0 | 0.0 | 0.00 | 0.00 | 0.00 | 22 | 1012.1 |
| 20260506211558 | 26 | 360 | 0.0 | 6.4 | 0.00 | 0.00 | 0.00 | 22 | 1012.4 |
| 20260506210054 | 26 | 360 | 0.0 | 4.8 | 0.00 | 0.00 | 0.00 | 22 | 1012.5 |
| 20260506204553 | 26 | 360 | 0.0 | 0.0 | 0.00 | 0.00 | 0.00 | 22 | 1012.6 |
| 20260506203057 | 26 | 360 | 0.0 | 6.4 | 0.00 | 0.00 | 0.00 | 22 | 1012.9 |
| 20260506201548 | 26 | 360 | 0.0 | 0.0 | 0.00 | 0.00 | 0.00 | 23 | 1013.1 |
| 20260506200046 | 26 | 360 | 0.0 | 0.0 | 0.00 | 0.00 | 0.00 | 24 | 1013.3 |
| 20260506194545 | 25 | 360 | 0.0 | 0.0 | 0.00 | 0.00 | 0.00 | 24 | 1013.4 |
| 20260506193047 | 25 | 360 | 0.0 | 8.0 | 0.00 | 0.00 | 0.00 | 26 | 1013.7 |
| 20260506191540 | 24 | 360 | 0.0 | 4.8 | 0.00 | 0.00 | 0.00 | 25 | 1013.7 |
| 20260506190038 | 23 | 360 | 0.0 | 4.8 | 0.00 | 0.00 | 0.00 | 26 | 1013.9 |
| 20260506184537 | 23 | 360 | 0.0 | 4.8 | 0.00 | 0.00 | 0.00 | 27 | 1014.1 |
| 20260506183040 | 23 | 360 | 0.0 | 6.4 | 0.00 | 0.00 | 0.00 | 27 | 1014.3 |
| 20260506181536 | 23 | 360 | 0.0 | 3.2 | 0.00 | 0.00 | 0.00 | 27 | 1014.4 |
| 20260506180032 | 23 | 360 | 0.0 | 4.8 | 0.00 | 0.00 | 0.00 | 28 | 1014.3 |
| 20260506174528 | 22 | 360 | 0.0 | 6.4 | 0.00 | 0.00 | 0.00 | 30 | 1014.3 |
| 20260506173026 | 22 | 360 | 0.0 | 0.0 | 0.00 | 0.00 | 0.00 | 31 | 1014.3 |
| 20260506171528 | 21 | 360 | 0.0 | 0.0 | 0.00 | 0.00 | 0.00 | 32 | 1014.3 |
| 20260506170026 | 21 | 360 | 0.0 | 0.0 | 0.00 | 0.00 | 0.00 | 34 | 1014.3 |
| 20260506164523 | 20 | 360 | 0.0 | 3.2 | 0.00 | 0.00 | 0.00 | 35 | 1014.4 |
| 20260506163020 | 19 | 360 | 0.0 | 0.0 | 0.00 | 0.00 | 0.00 | 37 | 1014.4 |
| 20260506160020 | 18 | 360 | 0.0 | 11.3 | 0.00 | 0.00 | 0.00 | 39 | 1014.3 |
| 20260506154516 | 18 | 360 | 0.0 | 9.7 | 0.00 | 0.00 | 0.00 | 40 | 1014.3 |
| 20260506153009 | 17 | 11 | 0.0 | 0.0 | 0.00 | 0.00 | 0.00 | 42 | 1014.3 |
| 20260506151506 | 16 | 360 | 0.0 | 8.0 | 0.00 | 0.00 | 0.00 | 43 | 1014.3 |
| 20260506150003 | 16 | 9 | 0.0 | 0.0 | 0.00 | 0.00 | 0.00 | 45 | 1014.4 |
| 20260506144501 | 16 | 360 | 0.0 | 0.0 | 0.00 | 0.00 | 0.00 | 45 | 1014.4 |
| 20260506143058 | 15 | 360 | 0.0 | 0.0 | 0.00 | 0.00 | 0.00 | 46 | 1014.3 |
| 20260506140055 | 13 | 360 | 0.0 | 0.0 | 0.00 | 0.00 | 0.00 | 49 | 1014.1 |
| 20260506134551 | 13 | 360 | 0.0 | 0.0 | 0.00 | 0.00 | 0.00 | 50 | 1014.0 |
| 20260506133051 | 13 | 13 | 0.0 | 0.0 | 0.00 | 0.00 | 0.00 | 50 | 1013.8 |
| 20260506130052 | 13 | 360 | 0.0 | 0.0 | 0.00 | 0.00 | 0.00 | 50 | 1013.3 |
| 20260506124543 | 13 | 360 | 0.0 | 0.0 | 0.00 | 0.00 | 0.00 | 51 | 1013.2 |
| 20260506123042 | 13 | 360 | 0.0 | 0.0 | 0.00 | 0.00 | 0.00 | 51 | 1013.1 |
| 20260506120040 | 12 | 360 | 0.0 | 0.0 | 0.00 | 0.00 | 0.00 | 53 | 1012.9 |
| 20260506114538 | 12 | 360 | 0.0 | 0.0 | 0.00 | 0.00 | 0.00 | 53 | 1012.8 |
| 20260506113037 | 12 | 360 | 0.0 | 0.0 | 0.00 | 0.00 | 0.00 | 53 | 1012.6 |
| 20260506110038 | 11 | 360 | 0.0 | 0.0 | 0.00 | 0.00 | 0.00 | 53 | 1012.6 |
| 20260506104535 | 12 | 360 | 0.0 | 0.0 | 0.00 | 0.00 | 0.00 | 52 | 1012.4 |
| 20260506103039 | 13 | 360 | 0.0 | 0.0 | 0.00 | 0.00 | 0.00 | 51 | 1012.3 |
| 20260506100037 | 13 | 360 | 0.0 | 0.0 | 0.00 | 0.00 | 0.00 | 50 | 1012.2 |
| 20260506094545 | 13 | 360 | 0.0 | 0.0 | 0.00 | 0.00 | 0.00 | 50 | 1012.1 |
| 20260506093037 | 13 | 360 | 0.0 | 0.0 | 0.00 | 0.00 | 0.00 | 50 | 1011.9 |
| 20260506090032 | 13 | 360 | 0.0 | 0.0 | 0.00 | 0.00 | 0.00 | 51 | 1012.0 |